Regional Weather Roundup
Issued by NWS Upton, NY

Current Version | Previous Version | Graphics & Text | Print | Product List | Glossary Off
Versions: 1 2 3 4 5 6 7 8 9 10 11 12 13 14 15 16 17 18 19 20 21 22 23 24 25 26 27 28 29 30 31 32 33 34 35 36 37 38 39 40 41 42 43 44 45 46 47 48 49 50

000
ASUS41 KOKX 252108
RWROKX

REGIONAL WEATHER ROUNDUP
NATIONAL WEATHER SERVICE NEW YORK NY
500 PM EDT THU MAY 25 2017

NOTE: "FAIR" INDICATES FEW OR NO CLOUDS BELOW 12,000 FEET WITH NO
SIGNIFICANT WEATHER AND/OR OBSTRUCTIONS TO VISIBILITY.

NYZ071-072-176-178-NJZ106-104-252200-
NEW YORK CITY METRO AREA

CITY           SKY/WX    TMP DP  RH WIND       PRES   REMARKS
Central Park   CLOUDY    58  57  97 NE10G20   29.56F FOG
Wall St Helipt CLOUDY    59  58  96 NE14      29.53F FOG
Bronx Bot Gard   N/A     55  54  94 NE6       29.53F
LaGuardia APRT CLOUDY    57  56  96 NE20      29.53F FOG
Kennedy INTL   CLOUDY    60  60 100 NE10      29.53F FOG
Breezy Point     N/A     57 N/A N/A NE13G20     N/A
Newark/Liberty DRIZZLE   59  59 100 NE6       29.53F FOG
Teterboro      CLOUDY    58  56  93 NE13      29.53F FOG
$$

NYZ177-179-078>081-252200-
LONG ISLAND NEW YORK

CITY           SKY/WX    TMP DP  RH WIND       PRES   REMARKS
Jones Beach      N/A     55 N/A N/A E18G25      N/A
Matinecock PT  NOT AVBL
Farmingdale    FOG       59  58  96 E13       29.54F VSB 1
MacArthur/ISP  DRZL/FOG  59  59 100 E13       29.55F VSB 1
Shirley        FOG       58  58 100 E8        29.57F VSB 1
Mt Sinai Harb    N/A     55 N/A N/A E12G17      N/A
Westhampton    LGT RAIN  57  55  93 E12G22    29.59F FOG
East Hampton   CLOUDY    55  55  97 NE8       29.59F FOG
Montauk          N/A     55  55 100 E12G20    29.62F
$$

NYZ052-065-067-252200-
HUDSON VALLEY

CITY           SKY/WX    TMP DP  RH WIND       PRES   REMARKS
White Plains   LGT RAIN  57  55  93 E9G25     29.56F VSB 1
Larchmont Harb   N/A     55 N/A N/A NE30        N/A
Croton O-T Hud   N/A     61 N/A N/A E3G9        N/A
Newburgh       DRIZZLE   59  59 100 E13       29.59S FOG
Montgomery     LGT RAIN  60  58  92 NE8       29.56F FOG
Poughkeepsie   LGT RAIN  59  57  93 NE5       29.57F FOG
Albany         LGT RAIN  58  54  86 N6        29.61F
$$

NJZ001-105-106-008-010-013-015-019>022-104-252200-
NEW JERSEY

CITY           SKY/WX    TMP DP  RH WIND       PRES   REMARKS
Newark/Liberty DRIZZLE   59  59 100 NE6       29.53F FOG
Teterboro      CLOUDY    58  56  93 NE13      29.53F FOG
Caldwell       CLOUDY    59  56  89 E12       29.54F FOG
Somerville     CLOUDY    62  59  90 NE8       29.49F
Linden         DRIZZLE   60  58  94 E7        29.52F
Perth Amboy      N/A     57 N/A N/A E10         N/A
Sussex         CLOUDY    60  59  96 NE6       29.55F
Andover          N/A     61  56  83 VRB6      29.53F
Trenton        CLOUDY    61  59  93 NE12      29.46F
Millville      CLOUDY    75  64  68 S9G17     29.45F
Atlantic City  SUNNY     73  62  68 S9G22     29.47F
Wrightstown    CLOUDY    65  63  93 NE9       29.46F
Toms River     CLOUDY    67  65  93 NE9       29.49F
Belmar         FOG       61  60  97 NE8       29.49F VSB 1/2
$$

PAZ047>061-062-071-252200-
EASTERN PENNSYLVANIA

CITY           SKY/WX    TMP DP  RH WIND       PRES   REMARKS
Philadelphia   CLOUDY    66  61  84 NE10      29.47F
Allentown      CLOUDY    62  57  83 E13       29.49F
Scranton       CLOUDY    64  56  75 SE8       29.49F
$$

CTZ002-004>006-009-010-012-RIZ004-006-007-MAZ004-011-015-252200-
SOUTHERN NEW ENGLAND
 IN CT

CITY           SKY/WX    TMP DP  RH WIND       PRES   REMARKS
Bradley INTL   LGT RAIN  56  54  93 N13       29.64F
Hartford       CLOUDY    58  54  86 NE9       29.63F
Danbury        LGT RAIN  58  58 100 E8        29.59F FOG
Wtrbury/Oxford DRIZZLE   55  52  88 E12G20    29.61S FOG
Bridgeport     CLOUDY    59  56  89 E15       29.58F FOG
Meriden        RAIN      58  56  93 VRB5      29.61F FOG
New Haven      LGT RAIN  60  58  92 NE7       29.59F FOG
Chester        LGT RAIN  57  57 100 NE9G15    29.60  VSB 1
Groton         CLOUDY    59  57  93 NE15      29.60F FOG
Wilimantic     CLOUDY    58  54  86 NE10      29.64F

 IN RI

CITY           SKY/WX    TMP DP  RH WIND       PRES   REMARKS
Providence     DRIZZLE   55  55 100 NE10      29.67F FOG
Block Island   CLOUDY    55  54  96 NE14      29.64F FOG
Westerly       LGT RAIN  59  58  96 NE8       29.63F FOG
 IN MA

CITY           SKY/WX    TMP DP  RH WIND       PRES   REMARKS
Boston         LGT RAIN  52  52 100 NE17      29.72F FOG
Worcester      LGT RAIN  50  48  93 NE15G23   29.69F FOG
Westfield      LGT RAIN  55  54  96 N8        29.66F FOG
Provincetown   CLOUDY    52  52 100 E15       29.70F FOG
Nantucket      FOG       58  56  93 E13       29.65F VSB 3/4
$$

ANZ330-335-338-340-345-350-353-355-252200-
COASTAL MARINE OBSERVATIONS


STATION/POSITION TIME  SKY/WX   TEMP    WIND        PRES    VSBY  WAVE
                                AIR SEA DIR/SP/G                  HT/PER
                 (UTC)          (F)     (DEG/KT/KT) (MB)    (MI)  (FT/S)
NY HARB ENTRANCE 1950            56 56   90/ 17/ 19  999.8          7/ 6
20 S FIRE ISLAND 2050            56 54   90/ 10/ 10  998.9          5/ 6
GREAT SOUTH BAY  2015            57 63   80/ 19/ 25   N/A
23 SSW MONTAUK P 1950            53 53              1002.2          5/ 6
15 E BARNEGAT LI 2030               57                N/A           5/ 8
HUDSON CANYON    2050            58 54  140/  8/  8  999.7          4/ 6
KINGS POINT      2048            57 57   60/  5/  9 1000.3
EXECUTION ROCKS  2045            56                   N/A
CENTRAL LI SOUND 2030            55      90/ 17/ 21   N/A           3/ 5
EASTERN LI SOUND NOT AVBL
ROBBINS REEF     2048            58      40/  9/ 11 1000.6
$$


>>>>>>>>>>>>>>>>>>>>>>>>>>>> KEY <<<<<<<<<<<<<<<<<<<<<<<<<<<
>                                                          <
>     SKY/WX - Sky Condition/Present Weather               <
>     TMP    - Temperature in Fahrenheit                   <
>     DP     - Dew Point in Fahrenheit                     <
>     RH     - Relative Humidity in Percent                <
>     WIND   - Direction (from) and Speed in MPH           <
>     PRES   - Mean Sea Level Pressure (inches of Hg)      <
>     WCI    - Wind Chill Index                            <
>     VSB    - VISIBILITY IN MILES                         <
>     HX     - HEAT INDEX                                  <
>     TC     - TEMPERATURE IN CELSIUS                      <
>     VRB    - VARIABLE WIND DIRECTION                     <
>                                                          <
>>>>>>>>>>>>>>>>>>>>>>>>>>>> KEY <<<<<<<<<<<<<<<<<<<<<<<<<<<



USA.gov is the U.S. government's official web portal to all federal, state and local government web resources and services.